logo tempoitalia

Diretta Meteo Pratt, Stati Uniti (USA)lunedì 31 agosto ore 01:35

Mappa
Sereno 29 °C Sereno 24 Ore: T.min 25 T.max 41
Ponente Sud Km/h 18.5 Punto di rugiada: 14 °C Umidità: 39% Visibilità: 10 Km
Il sole sorge alle: 07:04 Il sole tramonta alle: 20:05
31 Agosto 2026 01:35 tempo osservato: Sereno Sereno 29 39 1014 vento: Nord S 18.5
31 Agosto 2026 01:15 tempo osservato: Sereno Sereno 29 39 1014 vento: Nord S 14.8
31 Agosto 2026 00:55 tempo osservato: Sereno Sereno 29 39 1014 vento: Nord S 16.7
31 Agosto 2026 00:35 tempo osservato: Sereno Sereno 30 37 1013 vento: Nord S 20.3
31 Agosto 2026 00:20 tempo osservato: Sereno Sereno 30 37 1013 vento: Nord S 24
30 Agosto 2026 23:30 tempo osservato: Sereno Sereno 32 33 1012 vento: Nord S 24
30 Agosto 2026 23:15 tempo osservato: Sereno Sereno 32 33 1012 vento: Nord S 20.3
30 Agosto 2026 22:50 tempo osservato: Sereno Sereno 33 31 1011 vento: Nord S 22.2
30 Agosto 2026 22:35 tempo osservato: Sereno Sereno 33 31 1011 vento: Nord S 22.2
30 Agosto 2026 22:15 tempo osservato: Sereno Sereno 33 31 1011 vento: Nord S 25.9
30 Agosto 2026 21:55 tempo osservato: Sereno Sereno 34 30 1011 vento: Nord S 18.5
30 Agosto 2026 21:35 tempo osservato: Sereno Sereno 34 30 1011 vento: Nord S 20.3
30 Agosto 2026 21:15 tempo osservato: Sereno Sereno 35 28 1011 vento: Nord S 18.5
30 Agosto 2026 20:55 tempo osservato: Sereno Sereno 35 28 1011 vento: Nord S 18.5
30 Agosto 2026 20:35 tempo osservato: Sereno Sereno 36 25 1011 vento: Nord S 20.3
30 Agosto 2026 20:15 tempo osservato: Sereno Sereno 36 25 1010 vento: Nord S 16.7
30 Agosto 2026 19:55 tempo osservato: Sereno Sereno 37 23 1010 vento: Nord S 27.8
30 Agosto 2026 19:35 tempo osservato: Sereno Sereno 38 22 1010 vento: Nord S 25.9
30 Agosto 2026 19:15 tempo osservato: Sereno Sereno 38 22 1010 vento: Nord S 29.6
30 Agosto 2026 18:55 tempo osservato: Sereno Sereno 39 21 1010 vento: Nord S/SO 31.5
30 Agosto 2026 18:35 tempo osservato: Sereno Sereno 39 21 1010 vento: Nord S/SO 31.5
30 Agosto 2026 18:15 tempo osservato: Sereno Sereno 40 20 1010 vento: Nord S/SO 37
30 Agosto 2026 17:55 tempo osservato: Sereno Sereno 40 20 1010 vento: Nord S/SO 33.3
30 Agosto 2026 17:35 tempo osservato: Sereno Sereno 41 19 1010 vento: Nord S/SO 33.3
30 Agosto 2026 17:15 tempo osservato: Sereno Sereno 41 18 1010 vento: Nord S/SO 29.6
30 Agosto 2026 16:55 tempo osservato: Sereno Sereno 41 18 1010 vento: Nord S/SO 37
30 Agosto 2026 16:35 tempo osservato: Sereno Sereno 41 18 1010 vento: Nord S 29.6
30 Agosto 2026 16:15 tempo osservato: Sereno Sereno 41 18 1010 vento: Nord S/SO 40.7
30 Agosto 2026 15:55 tempo osservato: Sereno Sereno 41 19 1010 vento: Nord SO 35.2
30 Agosto 2026 15:35 tempo osservato: Sereno Sereno 41 19 1010 vento: Nord SO 33.3
30 Agosto 2026 15:15 tempo osservato: Sereno Sereno 41 19 1011 vento: Nord S/SO 27.8
30 Agosto 2026 14:55 tempo osservato: Sereno Sereno 41 20 1011 vento: Nord SO 25.9
30 Agosto 2026 14:35 tempo osservato: Sereno Sereno 41 20 1011 vento: Nord S/SO 35.2
30 Agosto 2026 14:15 tempo osservato: Sereno Sereno 40 21 1011 vento: Nord S/SO 24
30 Agosto 2026 13:55 tempo osservato: Sereno Sereno 40 21 1011 vento: Nord S/SO 33.3
30 Agosto 2026 13:35 tempo osservato: Sereno Sereno 40 21 1011 vento: Nord S/SO 31.5
30 Agosto 2026 13:15 tempo osservato: Sereno Sereno 39 22 1012 vento: Nord S/SO 25.9
30 Agosto 2026 12:55 tempo osservato: Sereno Sereno 39 22 1012 vento: Nord S/SO 33.3
30 Agosto 2026 12:35 tempo osservato: Sereno Sereno 38 25 1012 vento: Nord S/SO 33.3
30 Agosto 2026 12:15 tempo osservato: Sereno Sereno 37 27 1012 vento: Nord S/SO 37
30 Agosto 2026 11:55 tempo osservato: Sereno Sereno 37 27 1012 vento: Nord S/SO 38.8
30 Agosto 2026 11:35 tempo osservato: Sereno Sereno 36 28 1012 vento: Nord S 33.3
30 Agosto 2026 11:15 tempo osservato: Sereno Sereno 35 30 1013 vento: Nord S/SO 31.5
30 Agosto 2026 10:55 tempo osservato: Sereno Sereno 34 32 1012 vento: Nord S 38.8
30 Agosto 2026 10:35 tempo osservato: Sereno Sereno 33 33 1012 vento: Nord S 40.7
30 Agosto 2026 10:15 tempo osservato: Sereno Sereno 32 35 1012 vento: Nord S/SO 40.7
30 Agosto 2026 09:55 tempo osservato: Sereno Sereno 31 37 1012 vento: Nord S 31.5
30 Agosto 2026 09:35 tempo osservato: Sereno Sereno 30 40 1013 vento: Nord S/SO 35.2
30 Agosto 2026 09:15 tempo osservato: Sereno Sereno 29 42 1013 vento: Nord S 33.3
30 Agosto 2026 08:55 tempo osservato: Sereno Sereno 28 45 1013 vento: Nord S 31.5
30 Agosto 2026 08:35 tempo osservato: Sereno Sereno 27 44 1013 vento: Nord S 27.8
30 Agosto 2026 08:15 tempo osservato: Sereno Sereno 26 47 1013 vento: Nord S 31.5
30 Agosto 2026 07:55 tempo osservato: Sereno Sereno 26 47 1013 vento: Nord S 25.9
30 Agosto 2026 07:35 tempo osservato: Sereno Sereno 26 47 1013 vento: Nord S 22.2
30 Agosto 2026 07:15 tempo osservato: Sereno Sereno 25 50 1013 vento: Nord S 22.2
30 Agosto 2026 06:55 tempo osservato: Sereno Sereno 26 47 1013 vento: Nord S 27.8
30 Agosto 2026 06:35 tempo osservato: Sereno Sereno 26 47 1012 vento: Nord S 25.9
30 Agosto 2026 06:15 tempo osservato: Sereno Sereno 26 47 1012 vento: Nord S 27.8
30 Agosto 2026 05:55 tempo osservato: Sereno Sereno 26 47 1012 vento: Nord S 27.8
30 Agosto 2026 05:35 tempo osservato: Sereno Sereno 27 44 1012 vento: Nord S 25.9
30 Agosto 2026 05:15 tempo osservato: Sereno Sereno 26 44 1013 vento: Nord S 24
30 Agosto 2026 04:55 tempo osservato: Sereno Sereno 27 42 1013 vento: Nord S 20.3
30 Agosto 2026 04:35 tempo osservato: Sereno Sereno 27 42 1013 vento: Nord S 24
30 Agosto 2026 04:15 tempo osservato: Sereno Sereno 27 42 1013 vento: Nord S 24
30 Agosto 2026 03:55 tempo osservato: Sereno Sereno 27 42 1013 vento: Nord S 24
30 Agosto 2026 03:35 tempo osservato: Sereno Sereno 28 39 1013 vento: Nord S 25.9
30 Agosto 2026 03:15 tempo osservato: Sereno Sereno 27 42 1013 vento: Nord S 27.8
30 Agosto 2026 02:55 tempo osservato: Sereno Sereno 27 39 1013 vento: Nord S 22.2
30 Agosto 2026 02:35 tempo osservato: Sereno Sereno 28 37 1013 vento: Nord S 25.9
30 Agosto 2026 02:15 tempo osservato: Sereno Sereno 28 37 1013 vento: Nord S 27.8
30 Agosto 2026 01:55 tempo osservato: Sereno Sereno 29 35 1013 vento: Nord S 25.9
30 Agosto 2026 01:35 tempo osservato: Sereno Sereno 29 35 1013 vento: Nord S 25.9